Location: Clarks Summit,Pa.
(41.5000°N, 75.6000°W)
Time: 20:15:32
(UTC-05:00)

Envisat - Pass Details

Date: 07 December 2021
Orbit: 764 x 766 km, 98.2° (Epoch: 16 January)

Event Time Altitude Azimuth Distance (km) Brightness Sun altitude
Rises 05:21:15 0° 9° (N) 3,241 6.2 -20.7°
Reaches altitude 10° 05:23:35 10° 7° (N) 2,310 5.4 -20.3°
Maximum altitude 05:28:37 65° 287° (WNW) 843 2.9 -19.4°
Drops below altitude 10° 05:33:36 10° 206° (SSW) 2,293 5.3 -18.4°
Sets 05:35:55 0° 203° (SSW) 3,215 6.1 -18.0°
